Change the Weather History Date:

Sunday, April 21, 2013

  Actual Average Record
Temperature  
Mean Temperature 80 °F 81 °F  
Max Temperature 84 °F 87 °F 93 °F (1993)
Min Temperature 75 °F 75 °F 68 °F (1955)
Degree Days  
Heating Degree Days 0 0  
Month to date heating degree days 0 0  
Since 1 July heating degree days 0 0  
Cooling Degree Days 15 16  
Month to date cooling degree days 327 325  
Year to date cooling degree days 1549 1584  
Growing Degree Days 30 (Base 50)    
Moisture  
Dew Point 66 °F    
Average Humidity 67    
Maximum Humidity 82    
Minimum Humidity 51    
Precipitation  
Precipitation 0.00 in 0.10 in 1.66 in (1993)
Month to date precipitation 1.74 1.72  
Year to date precipitation 3.98 6.95  
Sea Level Pressure  
Sea Level Pressure 30.03 in    
Wind  
Wind Speed 12 mph (East)    
Max Wind Speed 24 mph    
Max Gust Speed 31 mph    
Visibility 10 miles    
Events      
T = Trace of Precipitation, MM = Missing Value Source: NWS Daily Summary

Daily Weather History Graph

Daily Weather History Graph

Search for Another Location

Airport or City:

Trip Planner

Search our weather history database for the weather conditions in past years. The results will help you decide how hot, cold, wet, or windy it might be!

Date:

Astronomy

Apr. 21, 2013 Rise Set
Actual Time 5:58 AM AST 6:38 PM AST
Civil Twilight 5:36 AM AST 7:00 PM AST
Nautical Twilight 5:10 AM AST 7:27 PM AST
Astronomical Twilight 4:43 AM AST 7:53 PM AST
Moon 2:53 PM AST (4/21) 2:41 AM AST (4/21)
Length of Visible Light 13h 24m
Length of Day
12h 39m
Waxing Gibbous, 79% of the Moon is Illuminated
Apr 21
Waxing Gibbous
Apr 25
Full
May 2
Last Quarter
May 9
New
May 18
First Quarter

Hourly Weather History & Observations

Time (AST) Temp. Heat Index Dew Point Humidity Pressure Visibility Wind Dir Wind Speed Gust Speed Precip Events Conditions
12:14 AM 77.0 °F - 69.8 °F 78% 30.05 in 10.0 mi East 10.4 mph - N/A   Overcast
12:53 AM 77.0 °F - 69.1 °F 76% 30.04 in 10.0 mi East 11.5 mph - N/A   Overcast
1:53 AM 75.9 °F - 68.0 °F 76% 30.01 in 10.0 mi East 6.9 mph - N/A   Scattered Clouds
2:45 AM 75.2 °F - 69.8 °F 83% 30.00 in 10.0 mi East 11.5 mph - N/A   Mostly Cloudy
2:53 AM 75.9 °F - 69.1 °F 79% 30.01 in 10.0 mi East 6.9 mph - N/A   Mostly Cloudy
3:05 AM 75.2 °F - 69.8 °F 83% 30.00 in 10.0 mi East 10.4 mph 17.3 mph N/A   Overcast
3:53 AM 75.9 °F - 69.1 °F 79% 30.01 in 10.0 mi East 6.9 mph - N/A   Overcast
4:53 AM 75.9 °F - 68.0 °F 76% 30.02 in 10.0 mi East 10.4 mph - N/A   Mostly Cloudy
5:53 AM 75.9 °F - 66.9 °F 74% 30.03 in 10.0 mi East 8.1 mph - N/A   Mostly Cloudy
6:53 AM 77.0 °F - 66.9 °F 71% 30.04 in 10.0 mi East 15.0 mph - N/A   Mostly Cloudy
7:53 AM 79.0 °F - 64.9 °F 62% 30.05 in 10.0 mi East 17.3 mph 25.3 mph N/A   Mostly Cloudy
8:53 AM 81.0 °F 83.0 °F 66.0 °F 60% 30.07 in 10.0 mi East 18.4 mph 26.5 mph N/A   Scattered Clouds
9:53 AM 82.9 °F 84.4 °F 64.0 °F 53% 30.08 in 10.0 mi East 16.1 mph 28.8 mph N/A   Partly Cloudy
11:53 AM 84.0 °F 86.3 °F 66.0 °F 55% 30.05 in 10.0 mi NE 19.6 mph 27.6 mph N/A   Clear
12:53 PM 82.9 °F 84.6 °F 64.9 °F 54% 30.04 in 10.0 mi NE 20.7 mph 26.5 mph N/A   Clear
1:53 PM 82.9 °F 83.7 °F 62.1 °F 49% 30.02 in 10.0 mi ENE 16.1 mph 26.5 mph N/A   Clear
2:53 PM 82.9 °F 84.0 °F 63.0 °F 51% 29.99 in 10.0 mi NE 17.3 mph 27.6 mph N/A   Clear
3:53 PM 82.9 °F 84.4 °F 64.0 °F 53% 29.99 in 10.0 mi East 11.5 mph 19.6 mph N/A   Clear
4:53 PM 82.0 °F 83.1 °F 63.0 °F 52% 29.99 in 10.0 mi ENE 11.5 mph 18.4 mph N/A   Clear
5:53 PM 79.0 °F - 64.0 °F 60% 29.99 in 10.0 mi East 9.2 mph 18.4 mph N/A   Partly Cloudy
6:53 PM 77.0 °F - 64.0 °F 64% 30.00 in 10.0 mi East 10.4 mph - N/A   Scattered Clouds
7:53 PM 77.0 °F - 64.0 °F 64% 30.03 in 10.0 mi East 10.4 mph - N/A   Overcast
8:53 PM 77.0 °F - 64.0 °F 64% 30.05 in 10.0 mi East 10.4 mph - N/A   Overcast
9:53 PM 75.9 °F - 66.0 °F 71% 30.06 in 10.0 mi East 6.9 mph - N/A   Overcast
10:21 PM 75.2 °F - 64.4 °F 69% 30.06 in 10.0 mi East 9.2 mph - N/A   Overcast
10:53 PM 75.9 °F - 64.9 °F 69% 30.06 in 10.0 mi East 10.4 mph - N/A   Overcast
11:53 PM 75.0 °F - 64.9 °F 71% 30.04 in 10.0 mi ENE 4.6 mph - N/A   Scattered Clouds